Location: Nairn
(57.5833°N, 3.8667°W)
Time: 02:50:43
(UTC+00:00)

Vanguard 1 Rocket - Pass Details

Date: 30 November 2020
Orbit: 655 x 4221 km, 34.3° (Epoch: 20 January)

Event Time Altitude Azimuth Distance (km) Brightness Sun altitude
Exits shadow 06:41:51 - 262° (W) 7,072 11.4 -13.4°
Reaches altitude 10° 06:45:09 10° 256° (WSW) 6,442 11.2 -12.9°
Maximum altitude 06:56:10 19° 221° (SW) 4,684 10.8 -11.6°
Drops below altitude 10° 07:04:07 10° 183° (S) 4,453 11.2 -10.6°
Sets 07:08:19 0° 165° (SSE) 4,902 11.8 -10.1°
